Tracking 30685 objects as of 18-Jun-2025
HD Live streaming from Space Station
objects crossing your sky now

OBJECT P

Track OBJECT P now!
10-day predictions


NORAD ID: 43771
Int'l Code: 2018-099P
Perigee: 500.8 km
Apogee: 518.6 km
Inclination: 97.5 °
Period: 94.7 minutes
Semi major axis: 6880 km
RCS: Unknown
Launch date: December 3, 2018
Source: United States (US)
Launch site: AIR FORCE WESTERN TEST RANGE (AFWTR)
Your satellite tracking list
Your tracking list is empty




NASA's NSSDC Master Catalog

Two Line Element Set (TLE):
1 43771U 18099P   25168.72716659  .00009663  00000-0  43675-3 0  9996
2 43771  97.4764 227.7807 0012938 128.2707 231.9695 15.21078943357914
Source of the keplerian elements: AFSPC